Location: Hains Lake
(37.8540°N, 99.8578°W)
Time: 14:57:43
(UTC+00:00)

Tiros 1 - Visible Passes

Search period start: 23 April 2021 00:00
Search period end: 03 May 2021 00:00
Orbit: 630 x 663 km, 48.4° (Epoch: 22 April)

Date Brightness Start Highest point End Pass type
(mag) Time Alt. Az. Time Alt. Az. Time Alt. Az.
27 Apr 9.9 10:50:52 10° SE 10:51:38 10° SE 10:52:24 10° ESE visible
28 Apr 9.0 11:13:16 10° S 11:17:11 26° SE 11:21:04 10° ENE visible
30 Apr 8.9 10:23:22 11° S 10:26:59 24° SE 10:30:45 10° E visible
01 May 7.7 10:48:23 12° SW 10:52:42 54° SE 10:57:19 10° ENE visible
02 May 8.9 09:35:40 20° SSE 09:36:48 22° SE 09:40:24 10° E visible
